TimePST,TemperatureF,Dew PointF,Humidity,Sea Level PressureIn,VisibilityMPH,Wind Direction,Wind SpeedMPH,Gust SpeedMPH,PrecipitationIn,Events,Conditions,WindDirDegrees,DateUTC
12:53 AM,54.0,43.0,66,29.99,10.0,South,5.8,-,N/A,,Mostly Cloudy,170,2013-02-19 08:53:00
1:53 AM,54.0,41.0,62,29.97,10.0,SSE,5.8,-,N/A,,Overcast,160,2013-02-19 09:53:00
2:53 AM,54.0,42.1,64,29.96,10.0,South,6.9,-,N/A,,Overcast,170,2013-02-19 10:53:00
3:53 AM,54.0,39.9,59,29.95,10.0,SE,6.9,-,N/A,,Overcast,130,2013-02-19 11:53:00
4:53 AM,54.0,41.0,62,29.95,10.0,SE,5.8,-,N/A,,Overcast,140,2013-02-19 12:53:00
5:53 AM,53.1,42.1,66,29.96,10.0,ESE,3.5,-,N/A,,Overcast,120,2013-02-19 13:53:00
6:53 AM,53.1,41.0,64,29.95,10.0,East,5.8,-,N/A,,Overcast,100,2013-02-19 14:53:00
7:45 AM,53.6,39.2,58,29.96,10.0,East,5.8,-,N/A,,Overcast,90,2013-02-19 15:45:00
7:53 AM,53.1,39.9,61,29.96,10.0,East,5.8,-,N/A,,Overcast,100,2013-02-19 15:53:00
8:27 AM,53.6,41.0,62,29.95,10.0,East,8.1,-,N/A,,Overcast,90,2013-02-19 16:27:00
8:53 AM,54.0,42.1,64,29.94,10.0,ESE,12.7,-,N/A,,Overcast,110,2013-02-19 16:53:00
9:53 AM,55.0,44.1,67,29.94,10.0,ESE,11.5,-,N/A,,Overcast,110,2013-02-19 17:53:00
10:53 AM,54.0,44.1,69,29.94,10.0,SE,6.9,-,N/A,,Overcast,140,2013-02-19 18:53:00
11:53 AM,54.0,44.1,69,29.91,10.0,East,6.9,-,N/A,,Overcast,90,2013-02-19 19:53:00
12:38 PM,57.2,44.6,63,29.89,10.0,WSW,15.0,-,N/A,,Mostly Cloudy,250,2013-02-19 20:38:00
12:44 PM,55.4,44.6,67,29.89,10.0,West,15.0,-,N/A,,Mostly Cloudy,280,2013-02-19 20:44:00
12:53 PM,55.9,44.1,64,29.88,10.0,West,15.0,-,N/A,,Overcast,270,2013-02-19 20:53:00
1:53 PM,57.0,43.0,59,29.86,10.0,West,13.8,-,N/A,,Mostly Cloudy,260,2013-02-19 21:53:00
2:53 PM,55.9,42.1,60,29.85,10.0,WSW,15.0,-,N/A,,Mostly Cloudy,250,2013-02-19 22:53:00
4:28 PM,53.6,42.8,67,29.81,10.0,West,15.0,-,N/A,,Overcast,260,2013-02-20 00:28:00
4:53 PM,54.0,41.0,62,29.81,10.0,WSW,13.8,-,N/A,,Mostly Cloudy,250,2013-02-20 00:53:00
5:53 PM,54.0,41.0,62,29.80,10.0,West,13.8,-,N/A,,Overcast,260,2013-02-20 01:53:00
6:53 PM,54.0,43.0,66,29.79,10.0,WSW,20.7,26.5,N/A,,Overcast,250,2013-02-20 02:53:00
7:17 PM,51.8,44.6,76,29.79,10.0,NW,16.1,25.3,0.00,Rain,Light Rain,310,2013-02-20 03:17:00
7:47 PM,53.6,39.2,58,29.78,10.0,West,17.3,-,0.00,,Overcast,270,2013-02-20 03:47:00
7:53 PM,52.0,41.0,66,29.77,10.0,West,16.1,-,0.00,,Overcast,260,2013-02-20 03:53:00
8:22 PM,50.0,44.6,82,29.78,5.0,West,33.4,44.9,0.02,Rain,Light Rain,260,2013-02-20 04:22:00
8:30 PM,46.4,42.8,87,29.77,2.5,WNW,17.3,44.9,0.12,Rain,Rain,290,2013-02-20 04:30:00
8:37 PM,48.2,42.8,82,29.77,9.0,WNW,21.9,26.5,0.12,Rain,Light Rain,290,2013-02-20 04:37:00
8:49 PM,48.2,42.8,82,29.76,10.0,WNW,18.4,-,0.13,Rain,Light Rain,290,2013-02-20 04:49:00
8:53 PM,48.9,42.1,77,29.76,10.0,WNW,15.0,25.3,0.13,Rain,Light Rain,290,2013-02-20 04:53:00
9:51 PM,50.0,44.6,82,29.75,10.0,West,15.0,23.0,0.00,Rain,Light Rain,280,2013-02-20 05:51:00
9:53 PM,50.0,45.0,83,29.74,10.0,West,18.4,23.0,0.00,Rain,Light Rain,270,2013-02-20 05:53:00
10:18 PM,50.0,42.8,76,29.74,10.0,West,19.6,-,0.00,,Overcast,270,2013-02-20 06:18:00
10:53 PM,50.0,37.9,63,29.73,10.0,WNW,20.7,28.8,0.00,,Mostly Cloudy,290,2013-02-20 06:53:00
11:53 PM,50.0,37.9,63,29.72,10.0,West,17.3,-,N/A,,Mostly Cloudy,280,2013-02-20 07:53:00